| time (UTC) | temp F | wind direction | speed MPH | gust MPH | rain 1hr in | rain 24hr in | rain mn in | humidity % | barometer mb |
| 20260901222518 | 77 | 264 | 13.0 | 21.0 | 0.00 | 0.00 | 0.00 | 32 | 1022.8 |
| 20260901222021 | 77 | 248 | 12.0 | 21.0 | 0.00 | 0.00 | 0.00 | 34 | 1022.8 |
| 20260901221538 | 77 | 244 | 14.0 | 22.0 | 0.00 | 0.00 | 0.00 | 32 | 1022.8 |
| 20260901221021 | 77 | 269 | 13.0 | 22.0 | 0.00 | 0.00 | 0.00 | 34 | 1022.8 |
| 20260901220517 | 77 | 250 | 15.0 | 22.0 | 0.00 | 0.00 | 0.00 | 33 | 1022.9 |
| 20260901220057 | 77 | 190 | 12.0 | 22.0 | 0.00 | 0.00 | 0.00 | 34 | 1022.9 |
| 20260901215519 | 76 | 270 | 11.0 | 20.0 | 0.00 | 0.01 | 0.00 | 36 | 1023.2 |
| 20260901215020 | 77 | 279 | 10.0 | 20.0 | 0.00 | 0.01 | 0.00 | 35 | 1023.4 |
| 20260901214538 | 78 | 246 | 13.0 | 27.0 | 0.00 | 0.01 | 0.00 | 33 | 1023.2 |
| 20260901214024 | 77 | 276 | 12.0 | 27.0 | 0.00 | 0.01 | 0.00 | 33 | 1023.1 |
| 20260901213518 | 77 | 222 | 9.0 | 19.0 | 0.00 | 0.01 | 0.00 | 34 | 1023.1 |
| 20260901213044 | 78 | 249 | 12.0 | 26.0 | 0.00 | 0.01 | 0.00 | 34 | 1023.4 |
| 20260901212518 | 78 | 242 | 14.0 | 26.0 | 0.00 | 0.01 | 0.00 | 33 | 1023.2 |
| 20260901212020 | 77 | 280 | 8.0 | 20.0 | 0.00 | 0.01 | 0.00 | 35 | 1023.3 |
| 20260901211535 | 76 | 248 | 7.0 | 17.0 | 0.00 | 0.01 | 0.00 | 37 | 1023.4 |
| 20260901211017 | 75 | 236 | 10.0 | 21.0 | 0.00 | 0.01 | 0.00 | 38 | 1023.6 |
| 20260901210517 | 76 | 284 | 14.0 | 21.0 | 0.00 | 0.01 | 0.00 | 39 | 1023.6 |
| 20260901210040 | 76 | 258 | 13.0 | 19.0 | 0.00 | 0.01 | 0.00 | 37 | 1023.8 |
| 20260901205520 | 78 | 259 | 11.0 | 19.0 | 0.00 | 0.07 | 0.00 | 37 | 1023.8 |
| 20260901205018 | 76 | 264 | 13.0 | 19.0 | 0.00 | 0.07 | 0.00 | 37 | 1023.9 |
| 20260901204542 | 75 | 225 | 12.0 | 18.0 | 0.00 | 0.07 | 0.00 | 36 | 1024.0 |
| 20260901204017 | 75 | 242 | 4.0 | 11.0 | 0.00 | 0.07 | 0.00 | 38 | 1023.8 |
| 20260901203520 | 75 | 290 | 4.0 | 13.0 | 0.00 | 0.07 | 0.00 | 38 | 1023.9 |
| 20260901203041 | 76 | 266 | 7.0 | 18.0 | 0.00 | 0.07 | 0.00 | 38 | 1024.1 |
| 20260901202519 | 76 | 269 | 9.0 | 18.0 | 0.00 | 0.07 | 0.00 | 38 | 1024.1 |
| 20260901202018 | 75 | 274 | 8.0 | 13.0 | 0.00 | 0.07 | 0.00 | 42 | 1024.0 |
| 20260901201543 | 74 | 277 | 8.0 | 17.0 | 0.00 | 0.07 | 0.00 | 40 | 1024.1 |
| 20260901201020 | 76 | 262 | 9.0 | 17.0 | 0.00 | 0.07 | 0.00 | 40 | 1024.3 |
| 20260901200518 | 75 | 255 | 9.0 | 17.0 | 0.00 | 0.07 | 0.00 | 42 | 1024.1 |
| 20260901200041 | 75 | 308 | 6.0 | 16.0 | 0.00 | 0.07 | 0.00 | 41 | 1024.2 |
| 20260901195520 | 75 | 276 | 11.0 | 22.0 | 0.00 | 0.08 | 0.00 | 41 | 1024.2 |
| 20260901195019 | 75 | 288 | 10.0 | 22.0 | 0.00 | 0.08 | 0.00 | 42 | 1024.1 |
| 20260901194540 | 76 | 227 | 8.0 | 19.0 | 0.00 | 0.08 | 0.00 | 40 | 1024.2 |
| 20260901194020 | 75 | 227 | 10.0 | 16.0 | 0.00 | 0.08 | 0.00 | 40 | 1024.1 |
| 20260901193516 | 75 | 255 | 7.0 | 15.0 | 0.00 | 0.08 | 0.00 | 41 | 1024.3 |
| 20260901193039 | 75 | 275 | 6.0 | 15.0 | 0.00 | 0.08 | 0.00 | 42 | 1024.4 |
| 20260901192518 | 74 | 245 | 9.0 | 14.0 | 0.00 | 0.08 | 0.00 | 46 | 1024.5 |
| 20260901192019 | 72 | 319 | 5.0 | 16.0 | 0.00 | 0.08 | 0.00 | 48 | 1024.5 |
| 20260901191546 | 73 | 314 | 10.0 | 16.0 | 0.00 | 0.08 | 0.00 | 46 | 1024.6 |
| 20260901191021 | 73 | 313 | 6.0 | 13.0 | 0.00 | 0.08 | 0.00 | 47 | 1024.6 |
| 20260901190521 | 71 | 300 | 2.0 | 12.0 | 0.00 | 0.08 | 0.00 | 49 | 1024.8 |
| 20260901190042 | 71 | 297 | 7.0 | 16.0 | 0.00 | 0.08 | 0.00 | 50 | 1024.9 |
| 20260901185517 | 71 | 311 | 10.0 | 16.0 | 0.00 | 0.09 | 0.00 | 48 | 1024.8 |
| 20260901185020 | 71 | 302 | 9.0 | 14.0 | 0.00 | 0.09 | 0.00 | 48 | 1024.8 |
| 20260901184604 | 70 | 314 | 8.0 | 14.0 | 0.00 | 0.09 | 0.00 | 52 | 1024.9 |
| 20260901184023 | 70 | 285 | 4.0 | 12.0 | 0.00 | 0.09 | 0.00 | 51 | 1025.1 |
| 20260901183526 | 71 | 302 | 8.0 | 12.0 | 0.00 | 0.09 | 0.00 | 51 | 1025.0 |
| 20260901183038 | 71 | 315 | 6.0 | 11.0 | 0.00 | 0.09 | 0.00 | 50 | 1025.1 |
| 20260901182521 | 71 | 337 | 5.0 | 17.0 | 0.00 | 0.09 | 0.00 | 52 | 1025.1 |
| 20260901182024 | 71 | 303 | 8.0 | 17.0 | 0.00 | 0.09 | 0.00 | 50 | 1025.2 |
| 20260901181551 | 71 | 304 | 11.0 | 16.0 | 0.00 | 0.09 | 0.00 | 52 | 1025.2 |
| 20260901181019 | 70 | 320 | 7.0 | 13.0 | 0.00 | 0.09 | 0.00 | 51 | 1025.2 |
| 20260901180518 | 70 | 247 | 4.0 | 13.0 | 0.00 | 0.09 | 0.00 | 52 | 1025.2 |
| 20260901180037 | 70 | 295 | 9.0 | 13.0 | 0.00 | 0.09 | 0.00 | 53 | 1025.2 |
| 20260901175521 | 70 | 264 | 3.0 | 12.0 | 0.00 | 0.09 | 0.00 | 51 | 1025.2 |
| 20260901175020 | 70 | 245 | 7.0 | 13.0 | 0.00 | 0.09 | 0.00 | 51 | 1025.3 |
| 20260901174553 | 70 | 307 | 7.0 | 17.0 | 0.00 | 0.09 | 0.00 | 53 | 1025.2 |
| 20260901174020 | 70 | 307 | 12.0 | 17.0 | 0.00 | 0.09 | 0.00 | 54 | 1025.3 |
| 20260901173517 | 70 | 297 | 7.0 | 12.0 | 0.00 | 0.09 | 0.00 | 53 | 1025.5 |
| 20260901173039 | 69 | 290 | 9.0 | 12.0 | 0.00 | 0.09 | 0.00 | 53 | 1025.4 |
| 20260901172518 | 69 | 229 | 8.0 | 12.0 | 0.00 | 0.09 | 0.00 | 52 | 1025.6 |
| 20260901172022 | 69 | 0 | 4.0 | 12.0 | 0.00 | 0.09 | 0.00 | 51 | 1025.6 |
| 20260901171541 | 69 | 313 | 6.0 | 12.0 | 0.00 | 0.09 | 0.00 | 52 | 1025.6 |
| 20260901171021 | 68 | 278 | 4.0 | 9.0 | 0.00 | 0.09 | 0.00 | 53 | 1025.5 |
| 20260901170519 | 68 | 46 | 3.0 | 8.0 | 0.00 | 0.09 | 0.00 | 54 | 1025.5 |
| 20260901170041 | 68 | 319 | 4.0 | 8.0 | 0.00 | 0.09 | 0.00 | 54 | 1025.5 |
| 20260901165517 | 68 | 280 | 3.0 | 10.0 | 0.00 | 0.09 | 0.00 | 54 | 1025.5 |
| 20260901165020 | 68 | 234 | 5.0 | 10.0 | 0.00 | 0.09 | 0.00 | 53 | 1025.5 |
| 20260901164542 | 68 | 269 | 3.0 | 9.0 | 0.00 | 0.09 | 0.00 | 56 | 1025.5 |
| 20260901164020 | 67 | 212 | 3.0 | 10.0 | 0.00 | 0.09 | 0.00 | 55 | 1025.4 |
| 20260901163519 | 67 | 271 | 7.0 | 10.0 | 0.00 | 0.09 | 0.00 | 56 | 1025.4 |
| 20260901163043 | 67 | 281 | 5.0 | 9.0 | 0.00 | 0.09 | 0.00 | 57 | 1025.3 |
| 20260901162515 | 67 | 31 | 1.0 | 6.0 | 0.00 | 0.09 | 0.00 | 55 | 1025.3 |
| 20260901162018 | 66 | 292 | 1.0 | 6.0 | 0.00 | 0.09 | 0.00 | 58 | 1025.2 |
| 20260901161551 | 66 | 345 | 4.0 | 6.0 | 0.00 | 0.09 | 0.00 | 56 | 1025.2 |
| 20260901161020 | 66 | 307 | 1.0 | 5.0 | 0.00 | 0.09 | 0.00 | 56 | 1025.2 |
| 20260901160521 | 66 | 260 | 0.0 | 4.0 | 0.00 | 0.09 | 0.00 | 58 | 1025.3 |
| 20260901160059 | 65 | 39 | 1.0 | 4.0 | 0.00 | 0.09 | 0.00 | 59 | 1025.4 |
| 20260901155520 | 65 | 355 | 1.0 | 4.0 | 0.00 | 0.09 | 0.00 | 59 | 1025.4 |
| 20260901155018 | 64 | 85 | 2.0 | 6.0 | 0.00 | 0.09 | 0.00 | 61 | 1025.4 |
| 20260901154539 | 64 | 68 | 1.0 | 7.0 | 0.00 | 0.09 | 0.00 | 65 | 1025.4 |
| 20260901154020 | 63 | 95 | 4.0 | 8.0 | 0.00 | 0.09 | 0.00 | 66 | 1025.4 |
| 20260901153519 | 63 | 119 | 5.0 | 8.0 | 0.00 | 0.09 | 0.00 | 68 | 1025.5 |
| 20260901153041 | 62 | 124 | 5.0 | 9.0 | 0.00 | 0.09 | 0.00 | 68 | 1025.4 |
| 20260901152518 | 62 | 115 | 6.0 | 9.0 | 0.00 | 0.09 | 0.00 | 69 | 1025.4 |
| 20260901152018 | 62 | 113 | 6.0 | 10.0 | 0.00 | 0.09 | 0.00 | 71 | 1025.5 |
| 20260901151535 | 61 | 113 | 7.0 | 10.0 | 0.00 | 0.09 | 0.00 | 72 | 1025.4 |
| 20260901151018 | 61 | 109 | 7.0 | 10.0 | 0.00 | 0.09 | 0.00 | 72 | 1025.5 |
| 20260901150522 | 60 | 114 | 8.0 | 10.0 | 0.00 | 0.09 | 0.00 | 72 | 1025.4 |
| 20260901150040 | 59 | 104 | 8.0 | 12.0 | 0.00 | 0.09 | 0.00 | 72 | 1025.6 |
| 20260901145520 | 59 | 127 | 9.0 | 12.0 | 0.00 | 0.09 | 0.00 | 74 | 1025.6 |
| 20260901145022 | 58 | 115 | 10.0 | 13.0 | 0.00 | 0.09 | 0.00 | 73 | 1025.6 |
| 20260901144538 | 58 | 109 | 9.0 | 13.0 | 0.00 | 0.09 | 0.00 | 77 | 1025.6 |
| 20260901144019 | 57 | 94 | 10.0 | 13.0 | 0.00 | 0.09 | 0.00 | 78 | 1025.6 |
| 20260901143519 | 57 | 122 | 10.0 | 12.0 | 0.00 | 0.09 | 0.00 | 77 | 1025.7 |
| 20260901143049 | 56 | 101 | 10.0 | 12.0 | 0.00 | 0.09 | 0.00 | 79 | 1025.8 |
| 20260901142518 | 56 | 111 | 10.0 | 13.0 | 0.00 | 0.09 | 0.00 | 79 | 1025.9 |
| 20260901142023 | 55 | 126 | 8.0 | 13.0 | 0.00 | 0.09 | 0.00 | 82 | 1025.8 |
| 20260901141542 | 55 | 113 | 9.0 | 13.0 | 0.00 | 0.09 | 0.00 | 81 | 1025.8 |
| 20260901141024 | 54 | 121 | 9.0 | 13.0 | 0.00 | 0.09 | 0.00 | 83 | 1025.8 |
| 20260901140518 | 54 | 110 | 10.0 | 13.0 | 0.00 | 0.09 | 0.00 | 82 | 1025.9 |
| 20260901140041 | 53 | 109 | 10.0 | 13.0 | 0.00 | 0.09 | 0.00 | 85 | 1025.7 |
| 20260901135520 | 53 | 105 | 8.0 | 12.0 | 0.00 | 0.09 | 0.00 | 86 | 1025.9 |
| 20260901135020 | 52 | 105 | 8.0 | 11.0 | 0.00 | 0.09 | 0.00 | 85 | 1025.9 |
| 20260901134539 | 52 | 106 | 8.0 | 11.0 | 0.00 | 0.09 | 0.00 | 86 | 1025.9 |
| 20260901134020 | 51 | 122 | 9.0 | 11.0 | 0.00 | 0.09 | 0.00 | 87 | 1025.9 |
| 20260901133519 | 51 | 110 | 6.0 | 9.0 | 0.00 | 0.09 | 0.00 | 89 | 1025.9 |
| 20260901133037 | 50 | 123 | 7.0 | 10.0 | 0.00 | 0.09 | 0.00 | 90 | 1025.8 |
| 20260901132521 | 49 | 109 | 7.0 | 10.0 | 0.00 | 0.09 | 0.00 | 91 | 1025.6 |
| 20260901132020 | 48 | 129 | 3.0 | 6.0 | 0.00 | 0.09 | 0.00 | 92 | 1025.6 |
| 20260901131541 | 47 | 117 | 4.0 | 6.0 | 0.00 | 0.09 | 0.00 | 93 | 1025.6 |
| 20260901131020 | 47 | 124 | 3.0 | 6.0 | 0.00 | 0.09 | 0.00 | 92 | 1025.6 |
| 20260901130521 | 46 | 122 | 4.0 | 6.0 | 0.00 | 0.09 | 0.00 | 92 | 1025.5 |
| 20260901130040 | 46 | 137 | 5.0 | 7.0 | 0.00 | 0.09 | 0.00 | 92 | 1025.4 |
| 20260901125517 | 46 | 117 | 5.0 | 7.0 | 0.00 | 0.09 | 0.00 | 92 | 1025.3 |
| 20260901125019 | 46 | 122 | 4.0 | 7.0 | 0.00 | 0.09 | 0.00 | 92 | 1025.4 |
| 20260901124539 | 46 | 112 | 5.0 | 6.0 | 0.00 | 0.09 | 0.00 | 92 | 1025.4 |
| 20260901124020 | 46 | 138 | 4.0 | 6.0 | 0.00 | 0.09 | 0.00 | 92 | 1025.3 |
| 20260901123518 | 46 | 124 | 4.0 | 6.0 | 0.00 | 0.09 | 0.00 | 93 | 1025.4 |
| 20260901123047 | 46 | 132 | 4.0 | 6.0 | 0.00 | 0.09 | 0.00 | 93 | 1025.2 |
| 20260901122518 | 46 | 139 | 3.0 | 5.0 | 0.00 | 0.09 | 0.00 | 93 | 1025.2 |
| 20260901122021 | 46 | 129 | 4.0 | 6.0 | 0.00 | 0.09 | 0.00 | 93 | 1025.2 |
| 20260901121542 | 46 | 126 | 4.0 | 6.0 | 0.00 | 0.09 | 0.00 | 93 | 1025.2 |
| 20260901121017 | 46 | 127 | 4.0 | 6.0 | 0.00 | 0.09 | 0.00 | 93 | 1025.2 |
| 20260901120520 | 46 | 138 | 3.0 | 6.0 | 0.00 | 0.09 | 0.00 | 92 | 1025.2 |
| 20260901120048 | 46 | 109 | 4.0 | 6.0 | 0.00 | 0.09 | 0.00 | 92 | 1025.2 |
| 20260901115517 | 46 | 146 | 3.0 | 5.0 | 0.00 | 0.09 | 0.00 | 92 | 1025.3 |
| 20260901115020 | 47 | 136 | 3.0 | 5.0 | 0.00 | 0.09 | 0.00 | 92 | 1025.2 |
| 20260901114541 | 47 | 121 | 3.0 | 5.0 | 0.00 | 0.09 | 0.00 | 92 | 1025.2 |
| 20260901114019 | 47 | 124 | 3.0 | 5.0 | 0.00 | 0.09 | 0.00 | 92 | 1025.1 |
| 20260901113520 | 47 | 129 | 4.0 | 5.0 | 0.00 | 0.09 | 0.00 | 92 | 1025.0 |
| 20260901113040 | 47 | 110 | 4.0 | 5.0 | 0.00 | 0.09 | 0.00 | 93 | 1025.0 |
| 20260901112519 | 47 | 114 | 3.0 | 5.0 | 0.00 | 0.09 | 0.00 | 92 | 1024.9 |
| 20260901112021 | 47 | 108 | 4.0 | 6.0 | 0.00 | 0.09 | 0.00 | 93 | 1025.0 |
| 20260901111537 | 47 | 126 | 4.0 | 6.0 | 0.00 | 0.09 | 0.00 | 93 | 1024.7 |
| 20260901111020 | 47 | 119 | 4.0 | 6.0 | 0.00 | 0.09 | 0.00 | 93 | 1024.7 |
| 20260901110517 | 48 | 115 | 4.0 | 5.0 | 0.00 | 0.09 | 0.00 | 92 | 1024.8 |
| 20260901110037 | 48 | 114 | 4.0 | 5.0 | 0.00 | 0.09 | 0.00 | 92 | 1024.6 |
| 20260901105518 | 48 | 110 | 3.0 | 5.0 | 0.00 | 0.09 | 0.00 | 92 | 1024.6 |
| 20260901105021 | 48 | 110 | 3.0 | 4.0 | 0.00 | 0.09 | 0.00 | 93 | 1024.6 |
| 20260901104542 | 48 | 103 | 3.0 | 5.0 | 0.00 | 0.09 | 0.00 | 92 | 1024.5 |
| 20260901104020 | 48 | 110 | 4.0 | 5.0 | 0.00 | 0.09 | 0.00 | 91 | 1024.6 |
| 20260901103518 | 48 | 112 | 3.0 | 5.0 | 0.00 | 0.09 | 0.00 | 91 | 1024.6 |
| 20260901103037 | 49 | 118 | 4.0 | 5.0 | 0.00 | 0.09 | 0.00 | 91 | 1024.5 |
| 20260901102518 | 49 | 150 | 3.0 | 5.0 | 0.00 | 0.09 | 0.00 | 91 | 1024.4 |
| 20260901102019 | 49 | 105 | 3.0 | 5.0 | 0.00 | 0.09 | 0.00 | 91 | 1024.5 |
| 20260901101537 | 50 | 98 | 2.0 | 6.0 | 0.00 | 0.09 | 0.00 | 91 | 1024.4 |
| 20260901101018 | 50 | 118 | 2.0 | 9.0 | 0.00 | 0.09 | 0.00 | 90 | 1024.4 |
| 20260901100519 | 50 | 119 | 5.0 | 9.0 | 0.00 | 0.09 | 0.00 | 90 | 1024.3 |
| 20260901100043 | 51 | 113 | 6.0 | 9.0 | 0.00 | 0.09 | 0.00 | 90 | 1024.4 |
| 20260901095517 | 51 | 111 | 4.0 | 9.0 | 0.00 | 0.09 | 0.00 | 89 | 1024.4 |
| 20260901095018 | 51 | 104 | 5.0 | 9.0 | 0.00 | 0.09 | 0.00 | 90 | 1024.6 |
| 20260901094535 | 50 | 106 | 5.0 | 9.0 | 0.00 | 0.09 | 0.00 | 90 | 1024.5 |
| 20260901094019 | 50 | 100 | 5.0 | 8.0 | 0.00 | 0.09 | 0.00 | 89 | 1024.6 |
| 20260901093521 | 50 | 91 | 4.0 | 6.0 | 0.00 | 0.09 | 0.00 | 90 | 1024.5 |
| 20260901093038 | 50 | 89 | 4.0 | 5.0 | 0.00 | 0.09 | 0.00 | 89 | 1024.7 |
| 20260901092516 | 51 | 89 | 3.0 | 4.0 | 0.00 | 0.09 | 0.00 | 88 | 1024.8 |
| 20260901092018 | 51 | 81 | 2.0 | 3.0 | 0.00 | 0.09 | 0.00 | 88 | 1024.8 |
| 20260901091536 | 51 | 98 | 2.0 | 3.0 | 0.00 | 0.09 | 0.00 | 88 | 1024.9 |
| 20260901091018 | 51 | 104 | 2.0 | 3.0 | 0.00 | 0.09 | 0.00 | 88 | 1024.8 |
| 20260901090520 | 51 | 96 | 3.0 | 3.0 | 0.00 | 0.09 | 0.00 | 89 | 1024.9 |
| 20260901090037 | 51 | 84 | 2.0 | 3.0 | 0.00 | 0.09 | 0.00 | 88 | 1025.0 |
| 20260901085517 | 51 | 94 | 1.0 | 4.0 | 0.00 | 0.09 | 0.00 | 89 | 1024.8 |
| 20260901085020 | 51 | 77 | 1.0 | 4.0 | 0.00 | 0.09 | 0.00 | 88 | 1024.7 |
| 20260901084537 | 51 | 80 | 3.0 | 6.0 | 0.00 | 0.09 | 0.00 | 88 | 1024.8 |
| 20260901084018 | 51 | 94 | 4.0 | 6.0 | 0.00 | 0.09 | 0.00 | 89 | 1024.9 |
| 20260901083517 | 51 | 101 | 4.0 | 6.0 | 0.00 | 0.09 | 0.00 | 89 | 1024.9 |
| 20260901083038 | 51 | 108 | 4.0 | 6.0 | 0.00 | 0.09 | 0.00 | 89 | 1024.9 |
| 20260901082518 | 51 | 121 | 4.0 | 6.0 | 0.00 | 0.09 | 0.00 | 88 | 1025.0 |
| 20260901082016 | 51 | 100 | 2.0 | 3.0 | 0.00 | 0.09 | 0.00 | 89 | 1024.9 |
| 20260901081537 | 51 | 105 | 2.0 | 4.0 | 0.00 | 0.09 | 0.00 | 90 | 1025.0 |
| 20260901081018 | 51 | 116 | 2.0 | 5.0 | 0.00 | 0.09 | 0.00 | 91 | 1025.0 |
| 20260901080520 | 51 | 123 | 3.0 | 6.0 | 0.00 | 0.09 | 0.00 | 90 | 1025.0 |
| 20260901080038 | 51 | 115 | 3.0 | 6.0 | 0.00 | 0.09 | 0.00 | 90 | 1025.0 |
| 20260901075519 | 52 | 108 | 3.0 | 4.0 | 0.00 | 0.09 | 0.00 | 90 | 1025.1 |
| 20260901075018 | 52 | 122 | 3.0 | 6.0 | 0.00 | 0.09 | 0.00 | 90 | 1025.2 |
| 20260901074536 | 52 | 115 | 3.0 | 6.0 | 0.00 | 0.09 | 0.00 | 91 | 1025.1 |
| 20260901074019 | 51 | 108 | 1.0 | 3.0 | 0.00 | 0.09 | 0.00 | 91 | 1025.2 |
| 20260901073519 | 51 | 116 | 0.0 | 3.0 | 0.00 | 0.09 | 0.00 | 91 | 1025.1 |
| 20260901073035 | 52 | 117 | 1.0 | 4.0 | 0.00 | 0.09 | 0.00 | 90 | 1025.1 |
| 20260901072519 | 52 | 122 | 3.0 | 5.0 | 0.00 | 0.09 | 0.00 | 90 | 1025.2 |
| 20260901072018 | 52 | 120 | 4.0 | 5.0 | 0.00 | 0.09 | 0.00 | 90 | 1025.2 |
| 20260901071537 | 52 | 109 | 3.0 | 6.0 | 0.00 | 0.09 | 0.00 | 91 | 1025.2 |
| 20260901071018 | 52 | 107 | 4.0 | 6.0 | 0.00 | 0.09 | 0.00 | 91 | 1025.0 |
| 20260901070520 | 52 | 98 | 5.0 | 6.0 | 0.00 | 0.09 | 0.00 | 91 | 1025.0 |
| 20260901070036 | 52 | 108 | 5.0 | 6.0 | 0.00 | 0.09 | 0.00 | 90 | 1025.1 |
| 20260901065520 | 52 | 100 | 3.0 | 5.0 | 0.00 | 0.09 | 0.00 | 90 | 1025.1 |
| 20260901065020 | 52 | 115 | 3.0 | 7.0 | 0.00 | 0.09 | 0.00 | 91 | 1025.0 |
| 20260901064539 | 52 | 102 | 3.0 | 7.0 | 0.00 | 0.09 | 0.00 | 90 | 1025.0 |
| 20260901064023 | 53 | 105 | 5.0 | 8.0 | 0.00 | 0.09 | 0.00 | 90 | 1025.0 |
| 20260901063522 | 53 | 83 | 6.0 | 8.0 | 0.00 | 0.09 | 0.00 | 91 | 1025.0 |
| 20260901063048 | 53 | 98 | 6.0 | 8.0 | 0.00 | 0.09 | 0.00 | 91 | 1024.8 |
| 20260901062521 | 53 | 117 | 6.0 | 8.0 | 0.00 | 0.09 | 0.00 | 91 | 1025.0 |
| 20260901062018 | 53 | 103 | 5.0 | 7.0 | 0.00 | 0.09 | 0.00 | 91 | 1025.2 |
| 20260901061547 | 53 | 98 | 5.0 | 7.0 | 0.00 | 0.09 | 0.00 | 92 | 1025.2 |
| 20260901061020 | 53 | 98 | 4.0 | 6.0 | 0.00 | 0.09 | 0.00 | 92 | 1025.1 |
| 20260901060521 | 53 | 98 | 5.0 | 6.0 | 0.00 | 0.09 | 0.00 | 92 | 1025.2 |
| 20260901060036 | 53 | 109 | 4.0 | 6.0 | 0.00 | 0.09 | 0.00 | 92 | 1025.3 |
| 20260901055520 | 53 | 103 | 3.0 | 6.0 | 0.00 | 0.09 | 0.09 | 91 | 1025.2 |
| 20260901055018 | 53 | 94 | 5.0 | 6.0 | 0.00 | 0.09 | 0.09 | 92 | 1025.3 |
| 20260901054541 | 53 | 88 | 4.0 | 5.0 | 0.00 | 0.09 | 0.09 | 93 | 1025.4 |
| 20260901054019 | 53 | 75 | 3.0 | 6.0 | 0.00 | 0.09 | 0.09 | 93 | 1025.3 |
| 20260901053523 | 53 | 77 | 3.0 | 6.0 | 0.00 | 0.09 | 0.09 | 92 | 1025.2 |
| 20260901053044 | 53 | 105 | 5.0 | 7.0 | 0.00 | 0.09 | 0.09 | 92 | 1025.0 |
| 20260901052521 | 54 | 104 | 5.0 | 8.0 | 0.00 | 0.09 | 0.09 | 92 | 1025.0 |
| 20260901052020 | 54 | 99 | 5.0 | 8.0 | 0.00 | 0.09 | 0.09 | 92 | 1025.2 |
| 20260901051541 | 54 | 113 | 6.0 | 9.0 | 0.00 | 0.09 | 0.09 | 92 | 1025.2 |
| 20260901051018 | 54 | 115 | 5.0 | 9.0 | 0.00 | 0.09 | 0.09 | 92 | 1025.0 |
| 20260901050520 | 54 | 105 | 5.0 | 7.0 | 0.00 | 0.09 | 0.09 | 92 | 1025.1 |
| 20260901050036 | 53 | 128 | 3.0 | 5.0 | 0.00 | 0.09 | 0.09 | 92 | 1024.9 |
| 20260901045524 | 53 | 98 | 4.0 | 5.0 | 0.00 | 0.09 | 0.09 | 91 | 1024.9 |
| 20260901045025 | 53 | 93 | 3.0 | 5.0 | 0.00 | 0.09 | 0.09 | 90 | 1024.8 |
| 20260901044539 | 53 | 92 | 4.0 | 5.0 | 0.00 | 0.09 | 0.09 | 90 | 1025.0 |
| 20260901044019 | 53 | 86 | 3.0 | 5.0 | 0.00 | 0.09 | 0.09 | 91 | 1025.0 |
| 20260901043516 | 53 | 106 | 3.0 | 5.0 | 0.00 | 0.09 | 0.09 | 91 | 1025.0 |
| 20260901043040 | 52 | 105 | 4.0 | 5.0 | 0.00 | 0.09 | 0.09 | 91 | 1025.1 |
| 20260901042518 | 52 | 102 | 4.0 | 5.0 | 0.00 | 0.09 | 0.09 | 91 | 1025.0 |
| 20260901042020 | 52 | 114 | 4.0 | 5.0 | 0.00 | 0.09 | 0.09 | 92 | 1025.0 |
| 20260901041536 | 52 | 85 | 2.0 | 3.0 | 0.00 | 0.09 | 0.09 | 92 | 1025.1 |
| 20260901041020 | 52 | 79 | 1.0 | 3.0 | 0.00 | 0.09 | 0.09 | 92 | 1025.0 |
| 20260901040522 | 52 | 102 | 2.0 | 3.0 | 0.00 | 0.09 | 0.09 | 92 | 1025.0 |
| 20260901040038 | 52 | 109 | 1.0 | 4.0 | 0.00 | 0.09 | 0.09 | 92 | 1025.3 |
| 20260901035518 | 52 | 136 | 1.0 | 4.0 | 0.00 | 0.09 | 0.09 | 92 | 1025.2 |
| 20260901035018 | 52 | 111 | 2.0 | 4.0 | 0.00 | 0.09 | 0.09 | 92 | 1025.2 |
| 20260901034538 | 53 | 111 | 3.0 | 4.0 | 0.00 | 0.09 | 0.09 | 91 | 1025.0 |
| 20260901034019 | 53 | 119 | 2.0 | 4.0 | 0.00 | 0.09 | 0.09 | 91 | 1025.0 |
| 20260901033520 | 53 | 106 | 1.0 | 3.0 | 0.00 | 0.09 | 0.09 | 90 | 1024.9 |
| 20260901033038 | 54 | 89 | 2.0 | 3.0 | 0.00 | 0.09 | 0.09 | 91 | 1024.8 |
| 20260901032517 | 54 | 82 | 1.0 | 2.0 | 0.00 | 0.09 | 0.09 | 91 | 1024.8 |
| 20260901032019 | 55 | 0 | 0.0 | 2.0 | 0.00 | 0.09 | 0.09 | 90 | 1024.8 |
| 20260901031538 | 55 | 136 | 1.0 | 2.0 | 0.00 | 0.09 | 0.09 | 90 | 1024.9 |
| 20260901031020 | 55 | 124 | 1.0 | 2.0 | 0.00 | 0.09 | 0.09 | 89 | 1024.7 |
| 20260901030517 | 56 | 117 | 1.0 | 2.0 | 0.00 | 0.09 | 0.09 | 86 | 1024.6 |
| 20260901030036 | 57 | 139 | 0.0 | 1.0 | 0.00 | 0.09 | 0.09 | 85 | 1024.6 |
| 20260901025522 | 58 | 0 | 0.0 | 0.0 | 0.00 | 0.09 | 0.09 | 84 | 1024.6 |
| 20260901025020 | 58 | 0 | 0.0 | 0.0 | 0.00 | 0.09 | 0.09 | 84 | 1024.4 |
| 20260901024539 | 57 | 0 | 0.0 | 0.0 | 0.00 | 0.09 | 0.09 | 85 | 1024.5 |
| 20260901024020 | 57 | 0 | 0.0 | 0.0 | 0.00 | 0.09 | 0.09 | 85 | 1024.5 |
| 20260901023521 | 57 | 0 | 0.0 | 0.0 | 0.00 | 0.09 | 0.09 | 85 | 1024.5 |
| 20260901023041 | 57 | 0 | 0.0 | 3.0 | 0.00 | 0.09 | 0.09 | 86 | 1024.5 |
| 20260901022521 | 57 | 0 | 0.0 | 3.0 | 0.00 | 0.09 | 0.09 | 86 | 1024.3 |
| 20260901022021 | 58 | 327 | 2.0 | 3.0 | 0.00 | 0.09 | 0.09 | 86 | 1024.2 |
| 20260901021543 | 58 | 349 | 1.0 | 3.0 | 0.00 | 0.09 | 0.09 | 85 | 1024.2 |
| 20260901021020 | 58 | 344 | 1.0 | 1.0 | 0.00 | 0.09 | 0.09 | 85 | 1024.2 |
| 20260901020520 | 58 | 314 | 0.0 | 3.0 | 0.00 | 0.09 | 0.09 | 86 | 1024.3 |
| 20260901020046 | 58 | 300 | 1.0 | 5.0 | 0.00 | 0.09 | 0.09 | 86 | 1024.4 |
| 20260901015517 | 58 | 279 | 3.0 | 5.0 | 0.00 | 0.09 | 0.09 | 86 | 1024.5 |
| 20260901015023 | 59 | 310 | 3.0 | 4.0 | 0.00 | 0.09 | 0.09 | 85 | 1024.4 |
| 20260901014537 | 60 | 214 | 0.0 | 1.0 | 0.00 | 0.09 | 0.09 | 85 | 1024.4 |
| 20260901014018 | 60 | 0 | 0.0 | 1.0 | 0.00 | 0.09 | 0.09 | 84 | 1024.5 |
| 20260901013518 | 61 | 212 | 0.0 | 2.0 | 0.00 | 0.09 | 0.09 | 85 | 1024.5 |
| 20260901013036 | 61 | 0 | 0.0 | 2.0 | 0.00 | 0.09 | 0.09 | 84 | 1024.5 |
| 20260901012517 | 61 | 226 | 0.0 | 1.0 | 0.00 | 0.09 | 0.09 | 83 | 1024.3 |
| 20260901012021 | 61 | 0 | 0.0 | 0.0 | 0.00 | 0.09 | 0.09 | 84 | 1024.5 |
| 20260901011534 | 61 | 0 | 0.0 | 0.0 | 0.00 | 0.09 | 0.09 | 83 | 1024.5 |
| 20260901011018 | 61 | 0 | 0.0 | 0.0 | 0.00 | 0.09 | 0.09 | 83 | 1024.5 |
| 20260901010523 | 61 | 0 | 0.0 | 1.0 | 0.00 | 0.09 | 0.09 | 83 | 1024.5 |
| 20260901010039 | 61 | 0 | 0.0 | 1.0 | 0.00 | 0.09 | 0.09 | 83 | 1024.6 |
| 20260901005521 | 61 | 56 | 0.0 | 0.0 | 0.00 | 0.09 | 0.09 | 83 | 1024.6 |
| 20260901005018 | 61 | 0 | 0.0 | 0.0 | 0.00 | 0.09 | 0.09 | 83 | 1024.6 |
| 20260901004550 | 61 | 0 | 0.0 | 2.0 | 0.00 | 0.09 | 0.09 | 82 | 1024.7 |
| 20260901004017 | 61 | 0 | 1.0 | 2.0 | 0.00 | 0.09 | 0.09 | 82 | 1024.7 |
| 20260901003521 | 61 | 110 | 1.0 | 2.0 | 0.00 | 0.09 | 0.09 | 81 | 1024.6 |
| 20260901003036 | 61 | 107 | 0.0 | 2.0 | 0.00 | 0.09 | 0.09 | 82 | 1024.7 |
| 20260901002520 | 61 | 0 | 0.0 | 1.0 | 0.00 | 0.09 | 0.09 | 81 | 1024.8 |
| 20260901002022 | 61 | 100 | 0.0 | 1.0 | 0.00 | 0.09 | 0.09 | 81 | 1024.8 |
| 20260901001539 | 61 | 58 | 0.0 | 1.0 | 0.00 | 0.09 | 0.09 | 81 | 1024.8 |
| 20260901001022 | 61 | 0 | 0.0 | 0.0 | 0.00 | 0.09 | 0.09 | 80 | 1024.9 |
| 20260901000518 | 61 | 0 | 0.0 | 1.0 | 0.00 | 0.09 | 0.09 | 81 | 1024.9 |
| 20260901000051 | 61 | 0 | 0.0 | 4.0 | 0.00 | 0.09 | 0.09 | 81 | 1024.9 |
| 20260831235519 | 61 | 0 | 0.0 | 5.0 | 0.00 | 0.09 | 0.09 | 82 | 1024.7 |
| 20260831235016 | 61 | 49 | 3.0 | 6.0 | 0.00 | 0.09 | 0.09 | 82 | 1024.7 |
| 20260831234539 | 61 | 83 | 3.0 | 6.0 | 0.00 | 0.09 | 0.09 | 81 | 1024.7 |
| 20260831234018 | 61 | 86 | 4.0 | 7.0 | 0.00 | 0.09 | 0.09 | 82 | 1024.8 |
| 20260831233521 | 61 | 76 | 5.0 | 7.0 | 0.00 | 0.09 | 0.09 | 81 | 1024.8 |
| 20260831233039 | 61 | 77 | 4.0 | 6.0 | 0.00 | 0.09 | 0.09 | 81 | 1025.0 |
| 20260831232520 | 61 | 70 | 4.0 | 6.0 | 0.00 | 0.09 | 0.09 | 81 | 1025.0 |
| 20260831232017 | 61 | 71 | 3.0 | 4.0 | 0.00 | 0.09 | 0.09 | 81 | 1025.1 |
| 20260831231546 | 61 | 74 | 0.0 | 4.0 | 0.00 | 0.09 | 0.09 | 80 | 1025.0 |
| 20260831231020 | 61 | 0 | 2.0 | 4.0 | 0.00 | 0.09 | 0.09 | 79 | 1025.0 |
| 20260831230519 | 61 | 62 | 0.0 | 3.0 | 0.00 | 0.09 | 0.09 | 80 | 1025.1 |
| 20260831230039 | 61 | 131 | 1.0 | 4.0 | 0.00 | 0.09 | 0.09 | 82 | 1024.9 |
| 20260831225521 | 61 | 135 | 1.0 | 6.0 | 0.00 | 0.09 | 0.09 | 81 | 1025.0 |
| 20260831225018 | 61 | 91 | 3.0 | 6.0 | 0.00 | 0.09 | 0.09 | 81 | 1025.0 |
| 20260831224539 | 61 | 99 | 4.0 | 7.0 | 0.00 | 0.09 | 0.09 | 82 | 1025.0 |
| 20260831224018 | 60 | 96 | 3.0 | 7.0 | 0.00 | 0.09 | 0.09 | 84 | 1025.1 |
| 20260831223520 | 60 | 131 | 4.0 | 7.0 | 0.00 | 0.09 | 0.09 | 84 | 1025.1 |
| 20260831223040 | 59 | 80 | 3.0 | 7.0 | 0.00 | 0.09 | 0.09 | 85 | 1025.0 |